Weather in Mianwali

Pakistan     32°35′13″N   71°32′34″E
temp.,
°C
wind,
m/s
gust,
m/s
humid.,
%
clouds,
%
prec.,
mm/h
press.,
hPa
HPBL,
m
14 may, fri
fri1423:00+28se79430 0.2 1003473
02:00+25sse6955100 0.8 1003409
05:00+25e135775 3.9 1003187
08:00+27n22495 0.6 1006711
11:00+31nne12370 0.6 10051795
14:00+34sse12299 0.0 10022381
17:00+34sse2327100 0.0 9991533
20:00+33nnw45288 0.0 1000164
15 may, sat
sat1523:00+31sw223559 1.1 100271
02:00+26nnw455525 1.9 1003241
05:00+27nnw22525 1.9 100354
08:00+29nw22403 0.0 1005398
11:00+33ese13290 0.0 10051918
14:00+37se43200 0.0 10023004
17:00+38ssw3519100 0.0 10003370
20:00+30wnw7103498 0.4 1004652
16 may, sun
sun1623:00+26ne71148100 0.6 1007442
02:00+27n6746100 0.0 1006486
05:00+25nne4853100 0.0 1008491
08:00+28nne5742100 0.0 1009724
11:00+32ne4330100 0.0 10091270
14:00+34nw2226100 0.0 10061842
17:00+34w2324100 0.0 10051659
20:00+30wnw5831100 0.0 1005324
17 may, mon
mon1723:00+29nne3432100 0.0 1005149
02:00+29nw3332100 0.0 100547
05:00+28nw2335100 0.0 100528
08:00+32n33290 0.0 1007429
11:00+36nnw32210 0.0 10061719
14:00+39nw33150 0.0 10032661
17:00+40wsw13110 0.0 10002502
20:00+36ese11140 0.0 100112
18 may, tue
tue1823:00+34ne221859 0.0 100211
02:00+33ne33205 0.0 100124
05:00+30ne34270 0.1 100266
08:00+35ene46200 0.0 1004524
11:00+39ne55160 0.0 10032149
14:00+41se12110 0.0 10004358
17:00+41ssw13102 0.0 9984808
20:00+35ssw1215252 0.0 10021054